Weather History for KBJJ - July, 2013

Change the Weather History Date:

Friday, July 5, 2013

  Actual Average Record
Temperature  
Mean Temperature 72 °F -  
Max Temperature 77 °F 79 °F 91 °F (1999)
Min Temperature 68 °F 57 °F 50 °F (2001)
Cooling Degree Days 6    
Growing Degree Days 22 (Base 50)    
Moisture  
Dew Point 67 °F    
Average Humidity 89    
Maximum Humidity 96    
Minimum Humidity 74    
Precipitation  
Precipitation 0.54 in - - ()
Sea Level Pressure  
Sea Level Pressure 30.15 in    
Wind  
Wind Speed 5 mph (SSW)    
Max Wind Speed 10 mph    
Max Gust Speed 16 mph    
Visibility 7 miles    
Events Rain    
Averages and records for this station are not official NWS values.
T = Trace of Precipitation, MM = Missing Value Source: NWS Daily Summary

Daily Weather History Graph

Daily Weather History Graph

Search for Another Location

Airport or City:

Trip Planner

Search our weather history database for the weather conditions in past years. The results will help you decide how hot, cold, wet, or windy it might be!

Date:

Astronomy

Jul. 05, 2013 Rise Set
Actual Time 6:01 AM EDT 9:02 PM EDT
Civil Twilight 5:28 AM EDT 9:35 PM EDT
Nautical Twilight 4:46 AM EDT 10:17 PM EDT
Astronomical Twilight 3:57 AM EDT 11:06 PM EDT
Moon 4:00 AM EDT (7/5) 6:55 PM EDT (7/5)
Length of Visible Light 16h 06m
Length of Day
15h 00m
Waning Crescent, 6% of the Moon is Illuminated
Jul 5
Waning Crescent
Jul 8
New
Jul 15
First Quarter
Jul 22
Full
Jul 29
Last Quarter

Hourly Weather History & Observations

Time (EDT) Temp. Dew Point Humidity Pressure Visibility Wind Dir Wind Speed Gust Speed Precip Events Conditions
12:56 AM 69.1 °F 66.9 °F 93% 30.14 in 8.0 mi Calm Calm - 0.00 in Rain Light Rain
1:56 AM 69.1 °F 66.9 °F 93% 30.12 in 6.0 mi Calm Calm - 0.02 in Rain Light Rain
2:43 AM 69.8 °F 66.2 °F 88% 30.16 in 2.0 mi WSW 5.8 mph - 0.05 in Rain Heavy Rain
2:51 AM 69.8 °F 68.0 °F 94% 30.17 in 1.5 mi SW 9.2 mph - 0.12 in Rain Rain
2:56 AM 69.1 °F 68.0 °F 96% 30.14 in 1.0 mi SW 3.5 mph - 0.26 in Rain Heavy Rain
3:03 AM 69.8 °F 66.2 °F 88% 30.15 in 1.2 mi South 6.9 mph - 0.03 in Rain Rain
3:06 AM 69.8 °F 66.2 °F 88% 30.14 in 3.0 mi SSW 5.8 mph - 0.04 in Rain Rain
3:44 AM 69.8 °F 68.0 °F 94% 30.13 in 7.0 mi Calm Calm - 0.05 in   Overcast
3:54 AM 69.8 °F 66.2 °F 88% 30.13 in 7.0 mi SSE 3.5 mph - 0.05 in   Overcast
3:56 AM 69.1 °F 66.9 °F 93% 30.11 in 7.0 mi Calm Calm - 0.05 in   Mostly Cloudy
4:24 AM 69.8 °F 66.2 °F 88% 30.13 in 9.0 mi South 3.5 mph - N/A   Mostly Cloudy
4:56 AM 69.1 °F 66.0 °F 90% 30.11 in 10.0 mi South 6.9 mph - N/A   Clear
5:38 AM 68.0 °F 66.2 °F 94% 30.14 in 10.0 mi South 3.5 mph - N/A   Mostly Cloudy
5:56 AM 68.0 °F 66.0 °F 93% 30.12 in 10.0 mi South 4.6 mph - N/A   Mostly Cloudy
6:19 AM 68.0 °F 66.2 °F 94% 30.14 in 10.0 mi South 3.5 mph - N/A   Scattered Clouds
6:33 AM 68.0 °F 66.2 °F 94% 30.15 in 10.0 mi South 4.6 mph - N/A   Mostly Cloudy
6:53 AM 68.0 °F 66.2 °F 94% 30.15 in 10.0 mi SSW 5.8 mph - 0.01 in Rain Light Rain
6:56 AM 68.0 °F 66.0 °F 93% 30.13 in 10.0 mi SSW 5.8 mph - 0.01 in Rain Light Rain
7:10 AM 68.0 °F 66.2 °F 94% 30.15 in 10.0 mi South 6.9 mph - 0.00 in   Overcast
7:29 AM 68.0 °F 66.2 °F 94% 30.15 in 10.0 mi SSW 6.9 mph - 0.00 in   Overcast
7:44 AM 68.0 °F 66.2 °F 94% 30.15 in 10.0 mi SW 5.8 mph - 0.00 in   Overcast
7:56 AM 68.0 °F 66.0 °F 93% 30.14 in 10.0 mi SSW 3.5 mph - 0.00 in   Overcast
8:25 AM 69.8 °F 66.2 °F 88% 30.16 in 10.0 mi SSW 5.8 mph - N/A   Overcast
8:43 AM 69.8 °F 66.2 °F 88% 30.16 in 10.0 mi SSW 8.1 mph - N/A   Overcast
8:56 AM 69.1 °F 66.0 °F 90% 30.15 in 10.0 mi SSW 9.2 mph - N/A   Overcast
9:23 AM 69.8 °F 66.2 °F 88% 30.17 in 10.0 mi SSW 8.1 mph - N/A   Overcast
9:51 AM 69.8 °F 66.2 °F 88% 30.17 in 10.0 mi SW 8.1 mph - N/A   Mostly Cloudy
9:56 AM 70.0 °F 66.9 °F 90% 30.15 in 10.0 mi SW 10.4 mph - N/A   Mostly Cloudy
10:40 AM 69.8 °F 66.2 °F 88% 30.18 in 6.0 mi SSW 6.9 mph - 0.01 in Rain Light Rain
10:49 AM 69.8 °F 66.2 °F 88% 30.18 in 5.0 mi SSW 8.1 mph 16.1 mph 0.02 in Rain Light Rain
10:56 AM 69.1 °F 66.9 °F 93% 30.17 in 2.5 mi SSW 9.2 mph - 0.04 in Rain Rain
11:06 AM 69.8 °F 66.2 °F 88% 30.18 in 3.0 mi SSW 8.1 mph - 0.02 in Rain Rain
11:19 AM 69.8 °F 66.2 °F 88% 30.18 in 2.5 mi SSW 4.6 mph - 0.06 in Rain Rain
11:33 AM 69.8 °F 66.2 °F 88% 30.18 in 6.0 mi SSW 6.9 mph - 0.07 in Rain Light Rain
11:42 AM 69.8 °F 66.2 °F 88% 30.18 in 7.0 mi SSW 8.1 mph - 0.08 in Rain Light Rain
11:56 AM 70.0 °F 66.9 °F 90% 30.17 in 4.0 mi South 9.2 mph - 0.08 in Rain Light Rain
12:00 PM 69.8 °F 66.2 °F 88% 30.19 in 2.5 mi SSW 6.9 mph - 0.01 in Rain Light Rain
12:09 PM 69.8 °F 66.2 °F 88% 30.19 in 2.5 mi South 8.1 mph - 0.01 in Rain Light Rain
12:14 PM 69.8 °F 66.2 °F 88% 30.19 in 5.0 mi SSW 5.8 mph - 0.01 in Rain Light Rain
12:28 PM 69.8 °F 66.2 °F 88% 30.19 in 1.8 mi SSW 6.9 mph - 0.03 in Rain Rain
12:37 PM 69.8 °F 66.2 °F 88% 30.19 in 3.0 mi South 5.8 mph - 0.03 in Rain Light Rain
12:51 PM 69.8 °F 68.0 °F 94% 30.19 in 5.0 mi South 9.2 mph - 0.03 in Rain Light Rain
12:56 PM 70.0 °F 66.9 °F 90% 30.17 in 7.0 mi SSW 6.9 mph - 0.03 in Rain Light Rain
1:07 PM 71.6 °F 68.0 °F 88% 30.18 in 9.0 mi SSW 5.8 mph - 0.00 in   Overcast
1:24 PM 71.6 °F 66.2 °F 83% 30.18 in 10.0 mi SSW 5.8 mph - 0.00 in   Overcast
1:56 PM 71.1 °F 68.0 °F 90% 30.16 in 3.0 mi South 4.6 mph - 0.01 in Rain Light Rain
2:06 PM 71.6 °F 68.0 °F 88% 30.17 in 5.0 mi SSW 6.9 mph - 0.00 in Rain Light Rain
2:11 PM 71.6 °F 68.0 °F 88% 30.17 in 4.0 mi SSW 5.8 mph - 0.00 in Rain Light Rain
2:33 PM 73.4 °F 69.8 °F 88% 30.17 in 8.0 mi WSW 5.8 mph - 0.01 in Rain Light Rain
2:56 PM 73.0 °F 68.0 °F 84% 30.15 in 9.0 mi WSW 9.2 mph - 0.01 in Rain Light Rain
3:35 PM 73.4 °F 69.8 °F 88% 30.16 in 10.0 mi WSW 8.1 mph - 0.03 in   Overcast
3:56 PM 75.0 °F 68.0 °F 79% 30.13 in 10.0 mi WSW 6.9 mph - 0.03 in   Mostly Cloudy
4:56 PM 75.9 °F 68.0 °F 76% 30.11 in 10.0 mi West 4.6 mph - N/A   Scattered Clouds
5:13 PM 75.2 °F 68.0 °F 78% 30.13 in 10.0 mi WNW 5.8 mph - N/A   Mostly Cloudy
5:56 PM 75.9 °F 66.9 °F 74% 30.11 in 10.0 mi WSW 5.8 mph - N/A   Overcast
6:56 PM 75.0 °F 66.9 °F 76% 30.12 in 10.0 mi WSW 4.6 mph - N/A   Overcast
7:56 PM 73.9 °F 68.0 °F 82% 30.11 in 10.0 mi SW 3.5 mph - N/A   Clear
8:56 PM 73.0 °F 66.9 °F 81% 30.13 in 10.0 mi SW 3.5 mph - N/A   Mostly Cloudy
9:56 PM 71.1 °F 66.9 °F 87% 30.13 in 10.0 mi Calm Calm - N/A   Clear
10:56 PM 69.1 °F 66.9 °F 93% 30.14 in 10.0 mi Calm Calm - N/A   Partly Cloudy
11:56 PM 68.0 °F 66.0 °F 93% 30.16 in 9.0 mi Calm Calm - N/A   Clear